Regional Weather Roundup
Issued by NWS Kansas City/Pleasant Hill, MO

Home | Current Version | Previous Version | Graphics & Text | Print | Product List | Glossary Off
Versions: 1 2 3 4 5 6 7 8 9 10 11 12 13 14 15 16 17 18 19 20 21 22 23 24 25 26 27 28 29 30 31 32 33 34 35 36 37 38 39 40 41 42 43 44 45 46 47 48 49 50

726
ASUS43 KEAX 251410
RWREAX

WEATHER ROUNDUP FOR EASTERN KANSAS AND NORTHWEST MISSOURI
NATIONAL WEATHER SERVICE KANSAS CITY/PLEASANT HILL MO
900 AM CDT THU MAY 25 2017

KSZ040-057-103>105-MOZ028-029-037-043-251500-
...KANSAS CITY METROPOLITAN AREA...

CITY           SKY/WX    TMP DP  RH WIND       PRES   REMARKS
K.C. INTL      SUNNY     61  52  72 S10       29.71S
K.C. DOWNTOWN  SUNNY     64  53  67 S7        29.72
LEES SUMMIT    SUNNY     62  52  69 S10       29.73S
OLATHE - IXD   SUNNY     61  51  70 S10       29.73R
OLATHE - OJC   SUNNY     60  52  74 S9        29.72S
LAWRENCE       SUNNY     61  53  75 S9        29.71R

$$

MOZ001>008-011>017-020>025-030>033-038>040-044>046-053-054-251500-
...NORTHERN AND CENTRAL MISSOURI...

CITY           SKY/WX    TMP DP  RH WIND       PRES   REMARKS
ST. JOSEPH     SUNNY     60  53  77 SW5       29.71R
WARRENSBURG    SUNNY     59  54  82 S3        29.74R
WHITEMAN AFB   SUNNY     60  60 100 SW9       29.74R
CLINTON        SUNNY     57  54  88 SW6       29.76R
SEDALIA        SUNNY     61  55  81 SW6       29.75S
WARSAW         NOT AVBL
CHILLICOTHE      N/A     61  53  75 CALM      29.73F
KIRKSVILLE     SUNNY     60  51  72 CALM      29.74R

$$

MOZ041-047>049-056>058-063>065-088>090-097-251500-
...EASTERN AND SOUTHERN MISSOURI...

CITY           SKY/WX    TMP DP  RH WIND       PRES   REMARKS
ST. LOUIS INTL MOSUNNY   64  53  67 NW9       29.72R
SPIRIT OF STL  MOSUNNY   62  54  74 NW6       29.72R
COLUMBIA       SUNNY     61  53  75 W3        29.74S
JEFFERSON CITY SUNNY     61  52  72 CALM      29.75R
ROLLA          SUNNY     58  53  84 W3        29.75R
SPRINGFIELD    SUNNY     60  52  74 S7        29.78R
BRANSON        SUNNY     59  52  77 SW6       29.80R
JOPLIN         SUNNY     64  53  67 S7        29.76R
WEST PLAINS    SUNNY     60  51  72 W6        29.80R

$$

IAZ060-094-KSZ022-034>040-054-083-096-NEZ052-066-093-251500-
...KANSAS...SOUTHEAST NEBRASKA AND IOWA...

CITY           SKY/WX    TMP DP  RH WIND       PRES   REMARKS
TOPEKA         SUNNY     62  51  67 SE12      29.70S
MANHATTAN      SUNNY     63  48  58 S15       29.66S
EMPORIA        SUNNY     60  48  64 S16       29.69R
CHANUTE        SUNNY     63  49  60 S14       29.72S
WICHITA        MOSUNNY   62  48  60 S17G25    29.64F
OMAHA          CLOUDY    60  49  66 S15       29.67S
LINCOLN        LGT RAIN  61  49  64 S13       29.65R
FALLS CITY     SUNNY     61  50  67 S12       29.68S
LAMONI         SUNNY     58  51  78 S6        29.71S
DES MOINES     MOSUNNY   58  49  72 E8        29.71S

$$





USA.gov is the U.S. government's official web portal to all federal, state and local government web resources and services.